Theta_e
314 313 312 312 310 305 308 312 306 317 321 308 310 303 305 300 304 307 304 304 302 300 301 299 299 298 301 307 305 299 302 299 293 296 303 305 303 300 299 293 291 295 294 293
313 313 312 312 310 306 304 307 308 318 317 301 302 306 303 304 303 303 303 301 303 303 300 296 300 301 304 304 303 300 302 297 290 292 298 301 298 300 301 301 301 293 290 292
313 313 312 312 310 307 305 307 302 309 310 309 303 302 301 300 305 302 303 302 303 300 298 301 297 298 302 304 303 302 302 297 293 288 293 297 293 295 297 297 292 292 294 295
313 313 313 312 310 307 306 309 304 306 301 303 303 303 301 299 298 302 303 299 299 296 292 296 296 298 299 302 303 300 300 292 294 294 296 296 295 295 296 294 296 291 295 295
313 313 313 312 310 306 307 303 302 305 303 303 302 298 299 298 299 298 297 296 297 298 293 294 292 295 295 295 299 298 300 290 293 291 294 295 293 295 296 295 296 296 295 295
312 312 312 313 310 306 308 310 310 306 301 302 301 300 299 298 299 299 300 298 296 295 296 300 301 300 300 299 297 295 293 292 290 286 293 293 290 294 295 296 297 296 292 297
311 311 312 313 311 306 306 308 307 302 298 301 300 300 300 298 299 296 299 300 296 300 304 303 301 300 299 297 297 299 292 290 289 287 291 282 294 301 299 297 297 299 299 300
311 311 311 313 311 308 306 309 306 302 297 300 300 300 299 300 300 298 298 299 302 304 300 294 291 294 293 295 297 296 295 291 288 286 286 291 294 297 297 294 295 301 300 300
311 312 312 313 311 307 304 309 312 306 299 298 302 299 299 296 296 298 297 301 305 302 297 292 287 287 290 289 292 298 296 295 289 289 284 282 294 299 302 300 289 301 301 300
309 311 312 313 311 308 305 308 316 306 299 302 302 297 296 300 297 294 298 297 298 301 294 290 288 288 294 288 288 289 290 289 285 286 285 290 299 301 302 288 292 302 302 301
308 310 311 312 312 308 305 308 314 307 300 302 304 303 299 298 296 293 298 296 296 296 291 291 291 290 292 291 293 291 290 289 288 290 286 284 301 300 293 298 302 302 301 300
307 309 310 312 312 309 306 306 311 310 302 302 308 307 308 305 303 299 299 296 294 297 293 293 293 291 292 291 287 296 290 293 289 290 292 301 303 302 303 303 301 301 301 301
306 308 309 311 312 309 306 307 309 307 301 302 303 302 308 309 308 309 297 299 299 298 301 295 294 289 294 289 290 292 295 300 294 294 298 299 300 304 303 303 302 303 303 302
306 307 308 310 311 309 307 305 308 305 298 293 299 309 304 309 309 306 306 302 302 300 297 293 292 290 297 293 294 293 295 297 295 295 298 300 300 301 301 302 303 302 302 300
305 307 308 310 311 308 307 307 307 306 299 292 297 304 307 308 306 304 304 301 298 295 291 290 290 295 296 296 296 293 298 296 293 292 299 299 298 301 302 301 300 299 299 299
306 307 308 311 310 307 304 297 305 306 303 297 292 302 302 304 304 302 301 301 296 295 292 292 297 301 297 292 291 298 299 301 302 298 300 300 300 301 301 298 299 300 299 299
306 307 308 310 307 305 300 298 303 306 306 295 292 293 300 304 303 303 300 302 298 294 292 294 296 298 298 294 290 298 300 301 301 301 300 297 298 296 299 299 299 300 300 298
306 307 309 307 304 303 300 304 305 306 300 298 290 291 296 304 299 297 302 298 298 297 297 298 296 298 297 292 297 299 300 300 300 299 298 297 298 299 298 299 299 297 295 295
307 306 305 304 303 300 301 305 305 305 298 292 290 288 289 301 301 301 299 298 292 299 294 295 297 295 291 296 298 298 299 297 295 297 297 298 296 296 296 297 297 294 293 294
306 305 299 294 299 306 305 299 294 294 295 293 291 295 290 297 298 295 294 295 293 290 295 300 294 294 300 300 300 300 298 297 297 294 294 295 294 295 295 296 294 293 294 293
301 297 293 300 306 301 297 291 291 292 289 293 293 294 291 300 292 292 296 292 295 289 294 293 292 293 297 300 300 298 299 298 297 298 297 297 297 295 295 293 294 294 293 290
300 302 302 300 295 293 289 289 292 289 288 294 293 295 296 296 300 293 295 292 294 288 298 293 290 294 298 299 297 298 298 297 297 298 297 298 297 296 294 294 295 294 292 290
303 300 294 293 292 286 286 284 287 288 295 296 296 295 299 298 296 294 294 290 290 297 292 291 293 297 298 298 297 297 297 298 298 298 298 297 296 296 295 295 296 294 292 290
295 291 285 289 287 290 292 294 293 300 299 298 298 296 294 297 293 295 290 294 295 289 288 288 295 297 297 298 297 296 297 298 297 297 297 295 295 294 295 297 296 293 292 290
293 291 287 290 296 298 299 301 300 302 302 301 297 296 296 293 292 294 293 290 288 290 290 294 296 299 298 296 296 297 297 297 297 297 296 295 294 294 295 296 296 294 293 291
293 291 290 296 295 296 298 299 300 303 303 301 299 292 290 290 293 290 288 288 287 292 297 297 299 299 298 297 298 298 298 298 298 297 296 296 295 294 295 296 295 294 294 291
290 291 298 296 298 298 300 301 301 305 301 297 297 289 289 296 290 289 294 292 296 298 298 300 301 299 298 298 298 298 298 298 298 296 296 296 297 296 294 293 295 295 294 294
Wind_Speed
15 16 16 18 19 26 12 6 5 6 3 7 7 4 6 4 6 8 8 7 10 11 13 15 10 6 8 8 11 5 6 6 10 17 18 15 17 20 18 10 14 12 13 14
13 16 15 16 16 13 9 7 10 6 2 4 2 9 5 4 4 9 10 9 8 9 13 11 10 9 12 2 3 4 4 4 8 11 15 22 15 13 14 12 18 19 14 9
13 14 15 14 15 11 8 6 5 3 3 1 8 12 9 4 8 6 7 10 11 9 13 9 7 12 2 4 6 8 2 8 14 12 17 9 8 11 16 9 6 9 17 19
11 14 15 14 16 14 5 6 4 3 5 6 7 7 12 9 7 8 10 6 9 7 6 12 14 8 13 5 7 1 3 9 15 19 23 23 25 19 19 19 15 12 14 17
11 13 14 15 16 21 5 5 5 8 10 3 7 2 7 6 7 6 10 7 10 10 8 10 16 16 9 8 3 5 4 6 13 18 17 21 23 22 20 21 21 23 22 23
11 11 12 13 13 11 7 8 5 6 7 6 8 4 7 8 6 6 5 6 9 11 9 8 11 13 14 12 13 7 2 4 5 10 15 15 15 17 19 18 20 15 17 16
11 10 11 10 8 7 5 9 8 9 9 9 5 5 8 9 8 8 11 11 11 7 13 13 15 19 18 17 16 12 5 6 3 6 10 9 6 8 7 6 6 6 7 9
10 10 11 9 7 7 6 8 5 4 7 10 11 6 6 8 8 5 9 7 4 6 10 9 10 10 12 19 19 15 11 7 4 4 7 14 14 4 4 5 7 8 7 9
10 9 9 7 6 5 5 6 5 5 6 2 11 9 5 7 7 10 3 1 4 6 6 5 6 5 2 2 2 10 17 14 8 3 4 4 4 7 6 8 7 9 10 7
12 10 9 7 7 5 5 4 4 4 6 5 7 6 4 5 5 6 8 5 3 4 2 4 7 7 4 3 4 2 3 6 12 9 7 8 3 3 2 7 4 8 10 11
12 11 10 8 8 7 4 3 3 4 4 11 8 7 6 3 5 4 6 7 3 3 3 3 3 4 4 6 2 4 6 3 5 6 5 7 10 5 3 2 4 8 9 11
11 11 10 8 8 9 6 4 2 3 5 9 15 14 15 12 11 3 3 3 2 3 4 3 6 4 5 5 4 3 3 3 1 3 4 0 4 11 1 4 7 8 10 12
10 11 9 9 6 12 10 4 1 2 4 10 9 2 4 0 0 3 3 2 0 2 4 3 4 6 6 3 3 4 2 7 5 8 2 2 2 12 8 14 14 15 14 15
10 10 9 10 8 14 10 2 2 2 1 4 2 3 1 6 9 10 10 5 3 4 1 1 4 5 2 6 10 10 8 9 10 13 6 5 8 8 13 11 11 14 17 17
10 10 9 10 8 14 5 1 1 1 2 3 8 13 3 5 7 8 8 7 4 3 1 3 4 7 4 8 9 9 3 4 4 5 7 6 12 15 14 15 15 16 16 18
9 9 10 12 11 14 3 2 5 5 3 3 5 5 7 6 6 4 11 9 3 2 2 4 4 7 4 4 6 6 3 6 5 6 11 10 10 13 16 15 16 17 17 17
7 8 11 10 20 4 1 2 2 9 3 2 4 3 6 10 7 4 3 8 3 3 2 6 6 7 4 4 9 5 6 8 11 8 8 10 12 13 15 17 18 17 17 17
7 8 2 17 15 9 2 3 7 3 1 4 3 5 4 6 4 4 2 5 6 7 4 4 6 5 4 4 3 5 8 8 9 10 11 12 13 13 16 15 15 16 16 17
4 20 17 4 1 2 3 8 7 2 2 2 3 3 2 4 0 2 3 2 2 0 4 4 2 4 5 4 4 8 7 7 11 12 12 11 13 14 13 15 17 17 18 17
18 2 1 3 2 14 14 3 2 2 2 2 4 6 3 3 3 0 1 2 3 3 5 3 4 5 4 3 6 4 9 8 10 11 12 12 11 12 15 15 15 15 15 14
2 2 3 2 11 2 2 2 4 4 4 5 5 7 4 2 3 1 4 2 3 3 4 4 4 2 5 3 5 7 7 8 8 9 11 10 12 11 13 15 16 14 12 9
0 6 5 2 1 2 3 4 4 4 4 6 5 3 2 2 1 1 4 3 4 5 6 4 1 1 5 5 7 8 8 9 9 10 10 12 11 13 13 11 10 12 13 11
3 1 4 3 4 4 6 7 5 5 5 5 5 5 2 2 3 4 4 5 2 2 4 1 3 4 4 7 6 8 8 8 9 11 11 12 13 14 11 13 14 14 13 11
1 2 3 5 6 6 7 6 1 3 6 5 6 4 3 3 4 4 5 3 5 5 3 4 4 4 6 6 7 7 7 9 10 11 11 12 12 13 14 13 13 13 12 9
2 2 5 8 7 7 5 3 1 8 8 6 5 3 2 1 3 3 4 4 5 2 4 4 5 7 7 8 7 7 7 7 8 10 9 10 12 11 10 13 13 13 11 8
2 5 5 8 7 8 6 3 5 7 7 6 3 3 2 4 4 4 5 4 4 4 4 6 7 7 7 7 6 6 6 7 8 8 9 10 12 12 12 12 11 13 14 9
4 5 9 9 8 3 7 1 5 7 5 3 2 3 1 2 3 3 1 3 5 5 6 8 9 8 7 7 6 6 6 6 6 7 8 10 10 11 12 12 11 10 14 11
Wind_Direction
319 317 326 331 338 334 334 301 276 86 248 248 248 235 250 15 333 331 285 287 300 304 332 320 289 290 210 352 331 273 22 315 280 279 280 262 249 266 256 242 254 256 265 272
319 316 325 331 337 3 321 292 297 114 217 258 136 269 349 151 328 350 331 313 326 324 316 316 305 327 126 12 220 351 31 236 287 276 247 233 252 308 289 265 244 241 243 243
319 316 322 329 326 345 323 282 293 146 217 349 339 8 313 331 97 331 356 328 316 326 311 281 280 292 32 319 113 72 342 266 259 264 285 294 245 283 295 276 248 269 262 283
322 317 320 325 323 334 303 246 34 15 322 43 336 327 312 301 336 18 339 311 61 0 308 317 286 1 316 242 146 255 261 268 275 272 273 273 278 267 250 248 252 248 269 272
321 315 321 324 330 332 242 317 346 353 286 315 293 210 312 352 354 332 306 294 339 324 292 287 300 301 298 298 198 263 163 278 285 281 269 259 261 263 266 265 259 259 268 272
309 308 317 318 333 333 291 4 304 269 293 275 261 39 350 316 317 319 45 341 309 293 308 320 285 282 287 258 278 288 211 291 296 269 264 266 258 253 255 259 255 254 263 277
298 299 307 307 320 343 310 314 312 302 279 285 303 2 331 313 320 318 320 316 299 304 325 298 277 264 254 247 250 240 211 225 250 273 290 257 285 317 261 286 301 319 277 312
294 294 294 296 296 321 296 303 322 310 306 305 312 12 322 331 288 260 284 328 3 339 296 296 283 255 230 233 228 217 196 231 267 261 275 289 280 200 35 36 313 23 32 35
307 297 286 286 271 302 293 293 316 305 286 12 336 325 316 324 315 270 70 339 308 266 288 270 272 283 264 141 297 249 194 215 236 293 281 284 89 66 1 324 259 31 360 351
314 310 305 293 238 254 280 307 319 292 280 279 360 354 323 314 331 296 326 348 302 308 238 265 277 273 319 275 165 181 195 211 219 237 243 260 122 289 307 243 30 340 318 326
304 307 302 294 227 217 264 317 20 308 277 286 305 326 273 267 262 268 356 283 32 311 258 287 348 295 331 277 188 195 193 222 214 225 237 247 359 307 336 11 308 302 326 331
295 297 301 281 228 202 223 261 70 354 269 299 317 285 271 258 246 216 215 345 283 311 291 13 302 315 296 328 295 11 277 257 309 266 310 224 306 300 305 300 287 334 329 329
287 288 289 298 237 193 204 291 151 269 306 279 228 227 209 188 296 109 227 245 209 3 2 345 305 280 321 292 288 280 281 210 227 230 158 272 198 277 354 341 357 354 344 340
282 282 285 290 254 188 188 293 60 68 3 308 277 120 343 186 176 178 200 128 96 67 345 285 267 275 316 294 304 298 291 264 308 291 332 309 89 340 352 335 332 338 335 328
275 275 280 284 213 177 161 335 2 146 291 287 298 307 236 160 164 211 152 143 137 128 200 234 250 271 322 274 281 281 6 293 342 325 359 335 332 352 336 341 339 331 340 334
271 277 278 281 167 134 120 233 191 197 227 267 299 358 221 163 153 127 161 153 108 127 221 260 248 271 253 280 286 76 313 63 23 349 11 349 330 328 335 333 340 354 331 313
281 284 283 168 146 143 168 25 102 153 128 235 267 268 164 174 185 190 160 151 144 156 233 245 245 260 218 264 275 20 342 15 30 30 352 326 324 335 341 357 350 326 324 338
292 298 248 130 110 113 116 93 82 97 214 270 289 276 216 199 156 185 14 186 184 194 247 255 262 285 222 259 45 10 31 2 355 344 342 341 348 350 359 344 313 335 339 340
310 124 114 89 23 130 89 118 121 68 344 272 203 269 287 216 83 96 139 330 232 341 234 238 264 251 224 274 14 43 17 353 354 349 345 358 2 348 338 336 339 345 347 337
137 115 130 139 133 119 136 149 141 194 182 248 254 237 257 314 41 96 86 206 220 233 213 165 227 257 103 94 46 21 25 8 360 347 351 355 330 349 347 339 360 350 341 1
246 101 71 27 141 210 202 184 240 169 219 209 236 231 227 50 295 75 239 216 258 263 174 218 217 163 107 83 39 45 21 8 3 2 353 355 8 342 349 360 353 343 21 3
336 99 106 122 213 209 231 205 191 219 246 185 204 168 136 105 321 248 233 242 214 254 168 217 195 235 82 56 49 37 24 20 7 12 6 15 353 7 17 342 350 26 23 357
32 191 146 200 175 207 226 197 192 205 199 162 158 154 101 143 207 243 243 243 245 221 229 182 86 127 75 52 29 38 35 22 27 27 19 8 11 18 8 1 17 28 13 4
168 149 188 229 185 234 220 255 213 133 114 149 156 114 172 202 208 257 252 256 207 233 219 79 150 109 81 68 42 43 34 38 37 31 21 20 18 25 14 17 27 27 18 10
181 230 240 217 249 267 280 165 352 125 143 125 118 97 184 263 259 249 290 243 247 30 66 128 89 75 61 60 54 44 42 39 39 38 24 22 31 37 19 31 27 21 26 7
252 217 266 255 261 265 246 169 191 119 111 107 79 134 216 227 238 215 241 285 29 84 140 135 120 92 77 73 67 58 46 44 48 45 26 24 29 32 29 29 30 24 12 33
230 247 235 261 280 356 336 337 254 153 152 120 182 222 243 254 239 219 312 338 110 160 100 80 86 97 101 95 77 68 59 51 53 60 41 28 26 32 29 26 22 35 19 18